TimeEST,TemperatureF,Dew PointF,Humidity,Sea Level PressureIn,VisibilityMPH,Wind Direction,Wind SpeedMPH,Gust SpeedMPH,PrecipitationIn,Events,Conditions,WindDirDegrees,DateUTC
12:15 AM,8.6,-2.2,62,30.07,10.0,NW,3.5,-,N/A,,Clear,310,2012-11-30 05:15:00
12:35 AM,8.6,-5.8,52,30.08,10.0,WNW,6.9,-,N/A,,Clear,300,2012-11-30 05:35:00
12:55 AM,8.6,-5.8,52,30.09,10.0,WNW,11.5,16.1,N/A,,Clear,300,2012-11-30 05:55:00
1:15 AM,8.6,-7.6,48,30.09,10.0,WNW,11.5,17.3,N/A,,Clear,290,2012-11-30 06:15:00
1:35 AM,8.6,-5.8,52,30.10,10.0,NW,10.4,-,N/A,,Clear,310,2012-11-30 06:35:00
1:55 AM,8.6,-7.6,48,30.10,10.0,WNW,9.2,-,N/A,,Clear,300,2012-11-30 06:55:00
2:15 AM,8.6,-5.8,52,30.10,10.0,WNW,12.7,-,N/A,,Clear,290,2012-11-30 07:15:00
2:35 AM,8.6,-5.8,52,30.11,10.0,WNW,12.7,-,N/A,,Clear,290,2012-11-30 07:35:00
2:55 AM,6.8,-5.8,56,30.11,10.0,WNW,12.7,-,N/A,,Clear,290,2012-11-30 07:55:00
3:15 AM,6.8,-4.0,61,30.12,10.0,WNW,10.4,-,N/A,,Clear,290,2012-11-30 08:15:00
3:35 AM,6.8,-5.8,56,30.13,10.0,WNW,11.5,-,N/A,,Clear,300,2012-11-30 08:35:00
3:55 AM,6.8,-5.8,56,30.14,10.0,WNW,10.4,-,N/A,,Clear,290,2012-11-30 08:55:00
4:15 AM,6.8,-5.8,56,30.14,10.0,WNW,8.1,-,N/A,,Clear,290,2012-11-30 09:15:00
4:35 AM,6.8,-5.8,56,30.16,10.0,West,5.8,-,N/A,,Clear,280,2012-11-30 09:35:00
4:55 AM,6.8,-7.6,52,30.18,10.0,West,4.6,-,N/A,,Clear,270,2012-11-30 09:55:00
5:15 AM,6.8,-7.6,52,30.18,10.0,WNW,9.2,-,N/A,,Clear,290,2012-11-30 10:15:00
5:35 AM,6.8,-5.8,56,30.18,10.0,West,6.9,-,N/A,,Clear,280,2012-11-30 10:35:00
6:15 AM,6.8,-5.8,56,30.20,10.0,WNW,8.1,-,N/A,,Clear,300,2012-11-30 11:15:00
6:35 AM,6.8,-5.8,56,30.20,10.0,West,9.2,-,N/A,,Clear,280,2012-11-30 11:35:00
6:55 AM,6.8,-5.8,56,30.21,10.0,West,9.2,-,N/A,,Clear,260,2012-11-30 11:55:00
7:15 AM,6.8,-5.8,56,30.22,10.0,West,5.8,-,N/A,,Clear,280,2012-11-30 12:15:00
7:35 AM,6.8,-4.0,61,30.23,10.0,West,6.9,-,N/A,,Clear,280,2012-11-30 12:35:00
7:55 AM,8.6,-4.0,57,30.24,10.0,WNW,8.1,-,N/A,,Clear,300,2012-11-30 12:55:00
8:15 AM,10.4,-2.2,57,30.25,10.0,West,8.1,-,N/A,,Clear,270,2012-11-30 13:15:00
8:55 AM,12.2,-2.2,53,30.27,10.0,WNW,13.8,-,N/A,,Clear,300,2012-11-30 13:55:00
9:55 AM,15.8,-2.2,45,30.30,10.0,West,15.0,19.6,N/A,,Clear,280,2012-11-30 14:55:00
10:15 AM,15.8,-0.4,49,30.30,10.0,WNW,13.8,18.4,N/A,,Clear,290,2012-11-30 15:15:00
10:35 AM,15.8,-0.4,49,30.29,10.0,WNW,16.1,23.0,N/A,,Clear,300,2012-11-30 15:35:00
10:55 AM,17.6,-0.4,45,30.29,10.0,WNW,16.1,23.0,N/A,,Clear,300,2012-11-30 15:55:00
11:15 AM,17.6,1.4,49,30.29,10.0,WNW,13.8,20.7,N/A,,Clear,290,2012-11-30 16:15:00
11:36 AM,17.6,1.4,49,30.29,10.0,NW,15.0,23.0,N/A,,Clear,310,2012-11-30 16:36:00
11:55 AM,19.4,-0.4,42,30.30,10.0,NW,13.8,20.7,N/A,,Clear,310,2012-11-30 16:55:00
12:15 PM,19.4,1.4,46,30.30,10.0,West,10.4,18.4,N/A,,Clear,280,2012-11-30 17:15:00
12:35 PM,19.4,-0.4,42,30.30,10.0,WNW,13.8,20.7,N/A,,Clear,290,2012-11-30 17:35:00
12:55 PM,19.4,1.4,46,30.30,10.0,WNW,10.4,19.6,N/A,,Clear,300,2012-11-30 17:55:00
1:15 PM,19.4,1.4,46,30.30,10.0,NW,9.2,-,N/A,,Clear,320,2012-11-30 18:15:00
1:35 PM,19.4,1.4,46,30.30,10.0,WNW,9.2,-,N/A,,Clear,290,2012-11-30 18:35:00
1:55 PM,19.4,1.4,46,30.31,10.0,NW,11.5,-,N/A,,Clear,310,2012-11-30 18:55:00
2:15 PM,19.4,1.4,46,30.32,10.0,WNW,11.5,18.4,N/A,,Clear,300,2012-11-30 19:15:00
2:35 PM,19.4,1.4,46,30.33,10.0,WNW,10.4,-,N/A,,Clear,300,2012-11-30 19:35:00
2:55 PM,19.4,-0.4,42,30.33,10.0,NW,6.9,-,N/A,,Clear,310,2012-11-30 19:55:00
3:15 PM,19.4,1.4,46,30.34,10.0,WNW,5.8,-,N/A,,Clear,290,2012-11-30 20:15:00
3:35 PM,19.4,-0.4,42,30.35,10.0,WNW,5.8,-,N/A,,Clear,300,2012-11-30 20:35:00
3:55 PM,17.6,1.4,49,30.35,10.0,WNW,3.5,-,N/A,,Clear,300,2012-11-30 20:55:00
4:15 PM,17.6,-0.4,45,30.36,10.0,WNW,5.8,-,N/A,,Clear,290,2012-11-30 21:15:00
4:35 PM,15.8,-0.4,49,30.37,10.0,West,4.6,-,N/A,,Clear,280,2012-11-30 21:35:00
4:55 PM,14.0,-0.4,53,30.38,10.0,Calm,Calm,-,N/A,,Clear,0,2012-11-30 21:55:00
5:15 PM,15.8,1.4,53,30.38,10.0,Calm,Calm,-,N/A,,Clear,0,2012-11-30 22:15:00
5:35 PM,10.4,-0.4,62,30.39,10.0,SW,3.5,-,N/A,,Clear,230,2012-11-30 22:35:00
5:55 PM,10.4,-0.4,62,30.40,10.0,Calm,Calm,-,N/A,,Clear,0,2012-11-30 22:55:00
6:15 PM,8.6,-0.4,67,30.41,10.0,SSE,3.5,-,N/A,,Clear,160,2012-11-30 23:15:00
6:35 PM,8.6,-0.4,67,30.42,10.0,SSW,3.5,-,N/A,,Clear,210,2012-11-30 23:35:00
6:55 PM,8.6,-2.2,62,30.42,10.0,Calm,Calm,-,N/A,,Clear,0,2012-11-30 23:55:00
7:15 PM,6.8,-2.2,67,30.43,10.0,Calm,Calm,-,N/A,,Clear,0,2012-12-01 00:15:00
7:55 PM,5.0,-2.2,72,30.43,10.0,Calm,Calm,-,N/A,,Clear,0,2012-12-01 00:55:00
8:15 PM,3.2,-2.2,78,30.44,10.0,Calm,Calm,-,N/A,,Clear,0,2012-12-01 01:15:00
8:35 PM,3.2,-2.2,78,30.45,10.0,Calm,Calm,-,N/A,,Clear,0,2012-12-01 01:35:00
8:55 PM,3.2,-2.2,78,30.45,10.0,Calm,Calm,-,N/A,,Clear,0,2012-12-01 01:55:00
9:15 PM,1.4,-5.8,72,30.45,10.0,Calm,Calm,-,N/A,,Clear,0,2012-12-01 02:15:00
9:35 PM,3.2,-4.0,72,30.45,10.0,Calm,Calm,-,N/A,,Clear,0,2012-12-01 02:35:00
9:55 PM,1.4,-2.2,85,30.46,10.0,Calm,Calm,-,N/A,,Clear,0,2012-12-01 02:55:00
10:15 PM,3.2,-4.0,72,30.46,10.0,South,3.5,-,N/A,,Clear,170,2012-12-01 03:15:00
10:35 PM,1.4,-5.8,72,30.47,10.0,Calm,Calm,-,N/A,,Clear,0,2012-12-01 03:35:00
10:55 PM,1.4,-4.0,78,30.47,10.0,Calm,Calm,-,N/A,,Clear,0,2012-12-01 03:55:00
11:15 PM,1.4,-7.6,66,30.48,10.0,SW,3.5,-,N/A,,Clear,220,2012-12-01 04:15:00
11:35 PM,1.4,-5.8,72,30.48,10.0,Calm,Calm,-,N/A,,Clear,0,2012-12-01 04:35:00
11:55 PM,1.4,-4.0,78,30.48,10.0,Calm,Calm,-,N/A,,Clear,0,2012-12-01 04:55:00